Location: Asheville, NC
(35.6000°N, 82.5500°W)
Time: 19:13:09
(UTC-04:00)

Vanguard 2 Rocket - Pass Details

Date: 18 February 2018
Orbit: 553 x 3327 km, 32.9° (Epoch: 27 May)

Event Time Altitude Azimuth Distance (km) Brightness Sun altitude
Exits shadow 04:21:35 54° 259° (W) 3,792 9.5 -35.5°
Maximum altitude 04:27:43 71° 200° (SSW) 3,425 9.5 -34.3°
Drops below altitude 10° 04:45:39 10° 120° (ESE) 5,459 11.4 -30.7°
Sets 04:49:16 0° 118° (ESE) 6,190 11.9 -30.0°
